Time,TemperatureF,DewpointF,PressureIn,WindDirection,WindDirectionDegrees,WindSpeedMPH,WindSpeedGustMPH,Humidity,HourlyPrecipIn,Conditions,Clouds,dailyrainin,SoftwareType,DateUTC
2015-03-31 00:03:00,50.3,30.9,30.12,West,266,1.0,3.0,47,0.00,,---,0.00,VWS V13.00,2015-03-31 04:03:00,
2015-03-31 00:08:00,50.3,30.9,30.12,West,268,0.0,3.0,47,0.00,,---,0.00,VWS V13.00,2015-03-31 04:08:00,
2015-03-31 00:13:00,50.3,30.9,30.12,West,268,0.0,3.0,47,0.00,,---,0.00,VWS V13.00,2015-03-31 04:13:00,
2015-03-31 00:17:00,50.3,30.9,30.12,WSW,249,0.0,3.0,47,0.00,,---,0.00,VWS V13.00,2015-03-31 04:17:00,
2015-03-31 00:23:00,50.3,30.9,30.11,SW,234,0.0,3.0,47,0.00,,---,0.00,VWS V13.00,2015-03-31 04:23:00,
2015-03-31 00:28:00,50.1,31.2,30.11,SSW,196,0.0,3.0,48,0.00,,---,0.00,VWS V13.00,2015-03-31 04:28:00,
2015-03-31 00:33:00,49.9,30.5,30.11,SSW,197,0.0,2.0,47,0.00,,---,0.00,VWS V13.00,2015-03-31 04:33:00,
2015-03-31 00:38:00,49.8,30.4,30.11,SSW,196,0.0,2.0,47,0.00,,---,0.00,VWS V13.00,2015-03-31 04:38:00,
2015-03-31 00:43:00,49.6,30.2,30.11,SSW,197,0.0,2.0,47,0.00,,---,0.00,VWS V13.00,2015-03-31 04:43:00,
2015-03-31 00:48:00,49.6,30.2,30.11,SSW,197,0.0,2.0,47,0.00,,---,0.00,VWS V13.00,2015-03-31 04:48:00,
2015-03-31 00:53:00,49.5,30.1,30.11,SSW,197,0.0,2.0,47,0.00,,---,0.00,VWS V13.00,2015-03-31 04:53:00,
2015-03-31 00:58:00,49.4,30.5,30.11,SSW,197,0.0,2.0,48,0.00,,---,0.00,VWS V13.00,2015-03-31 04:58:00,
2015-03-31 01:03:00,49.3,30.5,30.10,SSW,197,0.0,2.0,48,0.00,,---,0.00,VWS V13.00,2015-03-31 05:03:00,
2015-03-31 01:08:00,49.2,30.4,30.10,SSW,197,0.0,2.0,48,0.00,,---,0.00,VWS V13.00,2015-03-31 05:08:00,
2015-03-31 01:13:00,49.2,29.9,30.10,SSW,203,0.0,3.0,47,0.00,,---,0.00,VWS V13.00,2015-03-31 05:13:00,
2015-03-31 01:18:00,49.1,30.3,30.10,SSE,155,0.0,4.0,48,0.00,,---,0.00,VWS V13.00,2015-03-31 05:18:00,
2015-03-31 01:23:00,49.0,30.2,30.10,SSE,155,0.0,4.0,48,0.00,,---,0.00,VWS V13.00,2015-03-31 05:23:00,
2015-03-31 01:28:00,48.9,30.1,30.10,South,172,2.0,4.0,48,0.00,,---,0.00,VWS V13.00,2015-03-31 05:28:00,
2015-03-31 01:33:00,48.9,30.1,30.10,South,176,0.0,0.0,48,0.00,,---,0.00,VWS V13.00,2015-03-31 05:33:00,
2015-03-31 01:38:00,48.9,29.6,30.10,South,177,0.0,3.0,47,0.00,,---,0.00,VWS V13.00,2015-03-31 05:38:00,